Location: Borne
(52.1120°N, 12.5356°E)
Time: 22:53:11
(UTC+00:00)

Daily predictions for brighter satellites

Satellite Brightness Start Highest point End
(mag) Time Altitude Azimuth Time Altitude Azimuth Time Altitude Azimuth
ATLAS 2AS CENTAUR R/B 3.3 15:22:39 10° SSW 15:30:25 59° SE 15:38:13 10° NE
Landsat 5 4.0 15:30:31 10° N 15:34:21 58° WNW 15:38:17 10° SSW
SL-16 R/B 4.0 15:29:51 10° N 15:35:13 32° WNW 15:40:33 10° WSW
CZ-4 R/B 3.3 15:36:25 10° ENE 15:36:58 10° NE 15:37:30 10° NE
ALOS 2.4 15:32:57 10° SSE 15:37:37 83° WSW 15:42:20 10° NNW
Cosmos 2344 4.5 15:31:21 10° WNW 15:38:51 41° N 15:48:18 10° ENE
Cosmos 304 Rocket 3.9 15:34:27 10° NNW 15:39:11 53° ENE 15:43:54 10° SE
Cosmos 1048 Rocket 4.1 15:34:44 10° SSW 15:40:07 81° ESE 15:45:32 10° NNE
COSMOS 2428 3.8 15:35:39 10° SSE 15:40:18 27° ESE 15:44:59 10° NE
H-2A R/B 3.6 15:38:37 10° SE 15:41:47 27° ENE 15:44:58 10° N
Cosmos 1302 Rocket 4.1 15:37:10 10° NNW 15:42:26 61° ENE 15:47:38 10° SE
Lacrosse 5 rocket 3.6 15:41:55 10° SE 15:43:11 11° SE 15:44:26 10° ESE
Cosmos 332 Rocket 3.9 15:39:12 10° NNW 15:44:07 88° WSW 15:48:57 10° SSE
BREEZE-M DEB (TANK) 4.0 15:43:38 10° W 15:47:21 34° SSW 15:49:30 10° SE
IRS-1C Rocket 4.2 15:45:16 10° SE 15:50:23 54° ENE 15:55:32 10° N
YAOGAN 6 4.3 15:48:57 10° E 15:50:47 14° ENE 15:52:37 10° NNE
SL-4 R/B 3.5 15:49:00 10° SSW 15:51:57 22° SE 15:55:05 10° E
SeaSat 1 4.2 15:51:40 10° ENE 15:54:18 15° NNE 15:56:57 10° N
Okean O Rocket 1.9 15:50:34 10° S 15:54:54 71° WSW 15:59:16 10° NNW
COSMOS 2455 3.2 15:49:00 10° SW 15:54:59 66° NW 16:01:01 10° NE
Helios 1A Rocket 3.3 15:51:33 10° S 15:55:39 71° WSW 15:59:45 10° NNW
Meteor 1-28 Rocket 4.0 15:53:10 10° N 15:56:50 52° WNW 16:00:29 10° SSW
NOSS 2 (A) 3.9 15:55:41 10° NW 15:58:18 70° NE 16:00:40 10° SE
CENTAUR R/B 3.9 15:53:01 10° NW 16:00:45 59° SW 16:09:11 10° SSE
CZ-4B R/B 3.7 15:56:14 10° S 16:01:31 64° WSW 16:06:55 10° NNW
Cosmos 1782 2.7 15:58:16 10° S 16:02:15 73° E 16:06:15 10° NNE
Cosmos 2228 Rocket 3.6 15:58:22 10° SSW 16:02:54 64° WNW 16:07:29 10° N
USA 215 3.3 15:56:49 10° ENE 16:03:24 78° SSE 16:09:57 10° SW
ERBS 3.8 16:00:18 10° WNW 16:03:26 38° SW 16:06:35 10° SSE
Cosmos 2322 3.8 15:58:57 10° SSW 16:04:34 63° ESE 16:10:13 10° NE
Cosmos 2279 Rocket 4.0 15:58:53 10° N 16:05:10 75° ENE 16:11:26 10° SSE
Cosmos 1346 Rocket 2.9 16:02:17 10° NNW 16:06:16 83° WSW 16:10:15 10° S
Cosmos 371 Rocket 4.5 16:02:20 10° NW 16:07:03 48° WSW 16:11:44 10° S
Meteor 2-6 Rocket 4.4 16:02:05 10° SSE 16:07:12 47° E 16:12:25 10° NNE
Cosmos 1315 Rocket 2.8 16:03:19 10° S 16:07:14 60° E 16:11:15 10° NNE
Okean-O 3.1 16:03:23 10° SE 16:07:28 37° ENE 16:11:35 10° N
Genesis I 4.5 16:04:32 10° NNW 16:07:47 23° NNE 16:10:05 15° ENE
Cosmos 1634 Rocket 4.4 16:03:43 10° NNW 16:09:51 69° W 16:15:59 10° S
Cosmos 2278 Rocket 2.2 16:05:38 10° NNW 16:11:16 58° NE 16:16:50 10° SE
Cosmos 1606 4.1 16:07:59 10° SW 16:11:32 38° WNW 16:15:08 10° N
Cosmos 1666 3.9 16:12:52 10° NNE 16:15:44 20° ENE 16:18:35 10° ESE
AQUARIUS 4.1 16:11:51 10° SSE 16:16:18 67° ENE 16:20:47 10° N
Envisat 3.3 16:11:49 10° SE 16:16:37 44° ENE 16:21:26 10° N
Cosmos 1400 Rocket 4.0 16:14:11 10° SW 16:18:08 45° WNW 16:22:04 10° N
NOSS 2-2 (D) 4.0 16:14:30 10° WSW 16:18:10 49° NW 16:21:59 13° NE
Meteor 1-10 Rocket 4.4 16:13:13 10° S 16:18:33 52° E 16:23:59 10° NNE
Cosmos 1707 Rocket 3.6 16:14:40 10° S 16:19:05 65° E 16:23:32 10° NNE
Cosmos 1689 Rocket 3.2 16:17:41 10° N 16:20:38 45° WNW 16:23:32 10° SW
Cosmos 2360 Rocket 2.5 16:15:15 10° SW 16:20:54 69° NW 16:26:36 10° NNE
STARLINK-67 3.0 16:22:27 10° SW 16:25:09 50° SSE 16:26:30 24° E
Cosmos 2369 Rocket 3.7 16:21:59 10° NNW 16:25:39 17° NNE 16:27:19 15° NE
Cosmos 1980 Rocket 4.2 16:24:10 10° WNW 16:28:12 19° NNW 16:32:15 10° NNE
Cosmos 1992 Rocket 4.0 16:23:04 10° NNW 16:28:16 59° ENE 16:33:25 10° SE
Nadezhda 4 Rocket 4.3 16:23:36 10° SSE 16:29:34 46° E 16:35:32 10° NNE
Meteor 1-11 Rocket 3.8 16:23:54 10° N 16:29:53 70° ENE 16:35:50 10° SSE
Cosmos 2333 Rocket 2.3 16:25:55 10° SSW 16:31:34 62° ESE 16:36:30 14° NE
Cosmos 1908 Rocket 4.1 16:30:17 10° N 16:34:23 35° ENE 16:38:25 10° SE
COSMO-SKYMED 1 3.6 16:34:55 22° ENE 16:36:20 26° E 16:39:58 10° SSE
Shenzhou-11 Module 4.5 16:37:30 10° SSW 16:38:30 11° S 16:39:30 10° SSE
RESURS DK-1 2.7 16:35:14 10° S 16:39:11 47° ESE 16:41:16 25° NE
Meteor 1-27 Rocket 4.0 16:34:00 10° SSE 16:39:28 49° E 16:45:07 10° NNE
ATLAS 3B R/B 4.1 16:34:27 10° NW 16:40:37 40° WSW 16:46:55 10° S
ISS -2.7 16:38:12 10° W 16:41:25 44° SSW 16:44:04 14° SE
Cosmos 2237 Rocket 3.0 16:36:29 10° SSE 16:41:26 32° ESE 16:43:56 22° ENE
STARLINK-46 4.1 16:40:39 10° SSW 16:42:53 23° SSE 16:43:11 22° SE
NOSS 3-4 (A) 3.5 16:37:19 10° SW 16:43:24 88° NW 16:48:18 19° NE
NOSS 3-4 (C) 3.5 16:37:26 10° SW 16:43:30 88° NW 16:48:24 19° NE
CZ-4B R/B 4.1 16:41:47 10° NNW 16:44:21 19° WNW 16:46:54 10° WSW
Cosmos 2322 Rocket 3.6 16:40:48 10° WSW 16:45:48 32° NW 16:50:50 10° NNE
Cosmos 1812 2.7 16:42:59 10° S 16:46:47 57° E 16:49:28 18° NNE
Transit 2A Rocket 4.5 16:42:35 10° SSW 16:47:05 72° SE 16:49:30 26° NE
COBE Rocket 3.7 16:43:56 10° NNE 16:48:36 78° ESE 16:53:16 10° S
YAOGAN 1 3.0 16:45:12 10° SE 16:49:12 37° ENE 16:53:12 10° N
Exosat Rocket 3.7 16:45:12 10° S 16:50:18 51° ESE 16:53:10 23° NE
Cosmos 1900 4.2 16:45:43 10° NW 16:50:39 79° NE 16:55:31 10° SE
NOSS 5 (C) 4.4 16:47:59 10° NW 16:51:01 55° NE 16:52:13 35° E
SL-16 R/B 3.8 16:47:11 10° W 16:51:59 27° NW 16:56:49 10° NNE
NOAA 12 4.2 16:52:02 10° SSE 16:57:21 80° WSW 17:02:42 10° NNW
Cosmos 2219 Rocket 2.1 16:52:51 10° SSW 16:58:29 90° SE 17:02:43 19° NNE
Ariane Rocket 3.9 17:00:26 27° NE 17:00:26 27° NE 17:04:10 10° N
BREEZE-M R/B 3.1 16:54:35 10° WSW 17:00:07 62° S 17:01:16 37° ESE
Cosmos 1733 Rocket 3.6 16:56:56 10° NNW 17:01:15 59° W 17:05:32 10° S
Cosmos 1536 2.7 16:59:26 10° N 17:03:30 88° ENE 17:07:31 10° S
Cosmos 1500 3.9 17:03:05 10° NNW 17:06:48 53° W 17:10:27 10° S
Okean 1-7 4.4 17:03:14 10° SSE 17:05:18 23° SE 17:05:18 23° SE
SMAP 4.4 17:03:12 10° SSW 17:07:37 41° W 17:12:02 10° NNW
CZ-4 R/B 1.1 17:07:23 10° SSE 17:11:17 71° ENE 17:15:10 10° N
Cosmos 1980 3.8 17:06:03 10° S 17:11:32 54° ESE 17:13:45 34° NE
Cosmos 2297 3.7 17:05:54 10° NNW 17:11:33 56° NE 17:14:46 25° ESE
Cosmos 1943 Rocket 3.0 17:11:15 10° NNW 17:16:12 30° NE 17:16:12 30° NE
Cosmos 1441 Rocket 4.0 17:13:53 10° N 17:16:27 37° NNE 17:16:27 37° NNE
Lacrosse 5 rocket 1.5 17:17:31 10° SW 17:21:38 51° SE 17:21:46 50° SE
ATLAS 2AS CENTAUR R/B 3.5 17:13:45 10° WSW 17:21:39 58° NNW 17:26:45 23° NE
CSL-04 Rocket 3.5 17:17:38 10° SSE 17:22:53 75° ENE 17:28:12 10° NNW
YAOGAN 6 2.8 17:20:18 10° S 17:23:48 68° WSW 17:27:23 10° NNW
COSMOS 2428 3.0 17:18:30 10° SW 17:24:09 66° NW 17:27:49 23° NNE
SKYMED 2 3.4 17:23:37 48° NE 17:24:44 71° ESE 17:29:04 10° S
Cosmos 2195 Rocket 4.4 17:22:22 10° S 17:28:29 65° E 17:34:43 10° NNE
Cosmos 1782 Rocket 3.4 17:24:22 10° N 17:28:45 67° ENE 17:28:57 66° E
Cosmos 292 Rocket 3.8 17:24:38 10° NNW 17:29:32 80° WSW 17:34:24 10° SSE
SeaSat 1 2.9 17:31:15 42° NE 17:31:15 42° NE 17:35:30 10° NNW
SL-4 R/B 2.0 17:27:15 10° WSW 17:31:03 65° SSE 17:31:03 65° SSE
Cosmos 2251 Rocket 3.5 17:28:27 10° SSW 17:33:47 83° WNW 17:36:13 33° NNE
Cosmos 1092 Rocket 3.9 17:27:38 10° S 17:33:58 82° E 17:40:16 10° NNE
NOSS 0 Rocket 3.8 17:28:26 10° SSW 17:34:39 84° ESE 17:37:30 35° NE
CSL-04 Debris 4.1 17:29:44 10° SSE 17:35:13 88° W 17:40:42 10° NNW
Cosmos 921 Rocket 3.2 17:32:59 10° NNW 17:36:26 55° N 17:36:26 55° N
ATLAS 5 CENTAUR R/B 3.7 17:35:40 10° SW 17:35:55 12° SW 17:35:55 12° SW
Cosmos 2242 Rocket 3.8 17:33:17 10° SSW 17:37:50 74° WNW 17:40:14 28° N
COSMOS 2455 4.4 17:37:06 10° WNW 17:42:03 25° NNW 17:44:47 19° NNE
H-2A R/B 4.2 17:46:59 12° N 17:46:59 12° N 17:47:21 10° N
Cosmos 1703 Rocket 3.6 17:38:47 10° S 17:42:45 68° SSE 17:42:45 68° SSE
Meteor 2-9 Rocket 4.5 17:38:16 10° N 17:43:21 49° NE 17:43:21 49° NE
Genesis I 3.7 17:41:55 10° NW 17:45:01 54° NW 17:45:01 54° NW
USA 215 3.4 17:44:09 42° NE 17:46:22 64° NNW 17:52:49 10° W
Cosmos 1666 3.9 17:47:58 10° NNW 17:51:31 40° W 17:55:01 10° SSW
NOAA 11 4.2 17:49:11 10° SSE 17:54:38 82° WSW 18:00:10 10° NNW
Cosmos 2278 Rocket 4.0 17:50:10 10° NW 17:55:02 30° WSW 17:59:54 10° SSW
Cosmos 2344 4.3 17:46:48 10° NW 17:55:27 59° NNE 17:59:08 42° E
S3M 3.9 17:54:27 10° N 18:00:12 63° NE 18:00:12 63° NE
Cosmos 1867 3.5 17:55:13 10° NW 18:00:20 70° N 18:00:20 70° N
IRS-1A Rocket 4.2 18:00:57 72° E 18:01:12 73° ENE 18:07:07 10° NNW
BREEZE-M DEB (TANK) 4.2 18:02:08 10° WSW 18:04:16 22° SW 18:04:16 22° SW
Cosmos 2360 Rocket 4.2 18:01:45 10° W 18:05:59 21° NNW 18:08:43 15° N
Cosmos 2369 Rocket 3.1 18:05:34 10° NNW 18:09:07 36° N 18:09:07 36° N
SL-16 R/B 3.2 18:06:47 10° S 18:09:56 33° S 18:09:56 33° S
COSMO-SKYMED 1 3.6 18:12:08 41° NW 18:12:40 43° WNW 18:16:46 10° SW
Cosmos 1553 Rocket 4.0 18:09:13 10° NNW 18:15:34 82° W 18:21:58 10° S
Cosmos 2333 Rocket 3.6 18:11:02 10° WSW 18:16:14 34° NW 18:18:31 25° N
RESURS DK-1 4.2 18:13:49 10° WSW 18:17:10 28° NW 18:17:10 28° NW
ISS -0.6 18:16:00 10° WSW 18:17:00 12° SW 18:17:00 12° SW
NOSS 3-1 (C) 4.0 18:15:55 10° NW 18:22:54 61° NE 18:22:54 61° NE
Cosmos 2237 Rocket 2.7 18:19:38 10° SW 18:25:14 56° NW 18:25:48 54° NNW
YAOGAN 1 4.4 18:21:34 10° SSW 18:25:21 30° W 18:29:11 10° NNW
USA 229 DEB 3.9 18:22:55 10° NW 18:29:29 63° NNE 18:29:29 63° NNE
USA 229 3.9 18:23:01 10° NW 18:29:34 62° NNE 18:29:34 62° NNE
Cosmos 2322 Rocket 4.5 18:29:06 10° NW 18:31:46 13° NNW 18:32:57 13° N
NOSS 3-4 (C) 4.5 18:29:25 10° W 18:35:11 38° NNW 18:35:51 37° N
NOSS 3-1 (A) 4.2 18:28:18 10° NW 18:34:26 53° N 18:34:26 53° N
Ariane Rocket 4.4 18:40:38 33° NW 18:40:38 33° NW 18:43:36 10° NNW
Cosmos 2219 Rocket 3.9 18:38:36 10° W 18:43:13 25° NW 18:44:27 23° NNW
CZ-4 R/B 4.4 18:44:50 10° WSW 18:46:47 13° W 18:48:45 10° WNW
Cosmos 1943 Rocket 3.7 18:54:51 10° NW 18:57:45 31° NW 18:57:45 31° NW
Lacrosse 5 rocket 4.3 18:56:47 10° W 18:57:26 14° W 18:57:26 14° W
ATLAS 2AS CENTAUR R/B 4.0 19:06:56 10° WNW 19:14:11 36° N 19:14:11 36° N
USA 215 4.3 19:31:30 39° NW 19:31:30 39° NW 19:35:29 10° WNW
